Satellite: NOAA-11 Catalog number: 19531 Epoch time: 12157.76001829 Element set: 0945 Inclination: 098.7324 deg RA of node: 243.1584 deg Eccentricity: 0.0010344 Arg of perigee: 257.1326 deg Mean anomaly: 102.8687 deg Mean motion: 14.14968934 rev/day Decay rate: -1.08e-06 rev/day^2 Epoch rev: 22289 Checksum: 310
Satellite: NOAA-12 Catalog number: 21263 Epoch time: 12157.95726543 Element set: 0449 Inclination: 098.7284 deg RA of node: 179.6737 deg Eccentricity: 0.0012914 Arg of perigee: 232.5829 deg Mean anomaly: 127.4175 deg Mean motion: 14.25498477 rev/day Decay rate: 6.2e-07 rev/day^2 Epoch rev: 09495 Checksum: 341
Satellite: MET-3/5 Catalog number: 21655 Epoch time: 12158.81733422 Element set: 427 Inclination: 082.5548 deg RA of node: 159.5133 deg Eccentricity: 0.0012937 Arg of perigee: 354.1919 deg Mean anomaly: 005.9052 deg Mean motion: 13.17036035 rev/day Decay rate: 1.65e-06 rev/day^2 Epoch rev: 52 Checksum: 279
Satellite: MET-2/21 Catalog number: 22782 Epoch time: 12157.73108168 Element set: 0437 Inclination: 082.5493 deg RA of node: 041.6055 deg Eccentricity: 0.0022234 Arg of perigee: 180.9584 deg Mean anomaly: 179.1548 deg Mean motion: 13.83684570 rev/day Decay rate: 9.0e-08 rev/day^2 Epoch rev: 94758 Checksum: 324
Satellite: OKEAN-4 Catalog number: 23317 Epoch time: 12157.97215775 Element set: 0938 Inclination: 082.5413 deg RA of node: 041.6935 deg Eccentricity: 0.0022824 Arg of perigee: 032.5561 deg Mean anomaly: 327.7057 deg Mean motion: 14.83789124 rev/day Decay rate: 1.059e-05 rev/day^2 Epoch rev: 95314 Checksum: 314
Satellite: NOAA-14 Catalog number: 23455 Epoch time: 12157.93678205 Element set: 0930 Inclination: 098.8265 deg RA of node: 241.5760 deg Eccentricity: 0.0009558 Arg of perigee: 358.0362 deg Mean anomaly: 002.0769 deg Mean motion: 14.13900948 rev/day Decay rate: 1.2e-07 rev/day^2 Epoch rev: 89920 Checksum: 314
Satellite: NOAA-15 Catalog number: 25338 Epoch time: 12157.89318688 Element set: 0286 Inclination: 098.6888 deg RA of node: 144.9081 deg Eccentricity: 0.0011368 Arg of perigee: 137.4879 deg Mean anomaly: 222.7182 deg Mean motion: 14.25077295 rev/day Decay rate: 1.96e-06 rev/day^2 Epoch rev: 73124 Checksum: 351
Satellite: RESURS Catalog number: 25394 Epoch time: 12158.51281051 Element set: 104 Inclination: 098.3186 deg RA of node: 147.3119 deg Eccentricity: 0.0000544 Arg of perigee: 316.8342 deg Mean anomaly: 043.2793 deg Mean motion: 14.24288503 rev/day Decay rate: -4.0e-08 rev/day^2 Epoch rev: 72288 Checksum: 277
Satellite: FENGYUN1 Catalog number: 25730 Epoch time: 12157.92839564 Element set: 620 Inclination: 098.8454 deg RA of node: 117.1050 deg Eccentricity: 0.0020610 Arg of perigee: 037.7628 deg Mean anomaly: 322.4983 deg Mean motion: 14.09570789 rev/day Decay rate: 1.512e-05 rev/day^2 Epoch rev: 67302 Checksum: 299
Satellite: OKEAN-0 Catalog number: 25860 Epoch time: 12158.87592059 Element set: 647 Inclination: 097.9348 deg RA of node: 121.7305 deg Eccentricity: 0.0000696 Arg of perigee: 036.7052 deg Mean anomaly: 323.4207 deg Mean motion: 14.74207601 rev/day Decay rate: 4.37e-06 rev/day^2 Epoch rev: 69305 Checksum: 303
Satellite: NOAA-16 Catalog number: 26536 Epoch time: 12157.91808236 Element set: 0770 Inclination: 099.0962 deg RA of node: 199.8664 deg Eccentricity: 0.0011403 Arg of perigee: 113.7964 deg Mean anomaly: 246.4401 deg Mean motion: 14.12743816 rev/day Decay rate: -4.5e-07 rev/day^2 Epoch rev: 60344 Checksum: 310
Satellite: NOAA-17 Catalog number: 27453 Epoch time: 12157.92424417 Element set: 0729 Inclination: 098.3366 deg RA of node: 185.5300 deg Eccentricity: 0.0011685 Arg of perigee: 184.4672 deg Mean anomaly: 175.6408 deg Mean motion: 14.24440495 rev/day Decay rate: 1.47e-06 rev/day^2 Epoch rev: 51715 Checksum: 315
Satellite: NOAA-18 Catalog number: 28654 Epoch time: 12157.93787712 Element set: 0205 Inclination: 099.0445 deg RA of node: 115.9321 deg Eccentricity: 0.0014186 Arg of perigee: 182.9169 deg Mean anomaly: 177.1942 deg Mean motion: 14.11658487 rev/day Decay rate: 4.20e-06 rev/day^2 Epoch rev: 36297 Checksum: 329
Satellite: NOAA-19 Catalog number: 33591 Epoch time: 12157.65968194 Element set: 0396 Inclination: 098.8642 deg RA of node: 097.5919 deg Eccentricity: 0.0014998 Arg of perigee: 056.0848 deg Mean anomaly: 304.1725 deg Mean motion: 14.11345628 rev/day Decay rate: 2.83e-06 rev/day^2 Epoch rev: 17138 Checksum: 352
/EX SB KEPS @ AMSAT $ORB12158.M Orbital Elements 12158.MISC
HR AMSAT ORBITAL ELEMENTS FOR MANNED AND MISCELLANEOUS SATELLITES FROM WA5QGD FORT WORTH,TX June 6, 2012 Send SUBSCRIBE KEPS/UNSUBSCRIBE KEPS to [email protected] only BID: ORB12158.M TO ALL RADIO AMATEURS BT
Satellite: HUBBLE Catalog number: 20580 Epoch time: 12157.23442705 Element set: 11 Inclination: 028.4673 deg RA of node: 221.7732 deg Eccentricity: 0.0003475 Arg of perigee: 292.5723 deg Mean anomaly: 067.4532 deg Mean motion: 15.02529362 rev/day Decay rate: 1.704e-05 rev/day^2 Epoch rev: 1293 Checksum: 260
Satellite: ISS Catalog number: 25544 Epoch time: 12158.78670139 Element set: 702 Inclination: 051.6365 deg RA of node: 174.4085 deg Eccentricity: 0.0010403 Arg of perigee: 037.9761 deg Mean anomaly: 316.7829 deg Mean motion: 15.56181056 rev/day Decay rate: 1.2336e-04 rev/day^2 Epoch rev: 77638 Checksum: 310
Satellite: CO-58 Catalog number: 28895 Epoch time: 12158.39639028 Element set: 193 Inclination: 097.9128 deg RA of node: 025.1434 deg Eccentricity: 0.0017828 Arg of perigee: 180.8233 deg Mean anomaly: 179.2960 deg Mean motion: 14.60632449 rev/day Decay rate: 8.44e-06 rev/day^2 Epoch rev: 35208 Checksum: 338
Satellite: FALCON Catalog number: 30776 Epoch time: 12158.59312844 Element set: 362 Inclination: 035.4322 deg RA of node: 341.5425 deg Eccentricity: 0.0002612 Arg of perigee: 312.0355 deg Mean anomaly: 048.0148 deg Mean motion: 15.07494028 rev/day Decay rate: 3.763e-05 rev/day^2 Epoch rev: 28865 Checksum: 281
Satellite: MAST Catalog number: 31126 Epoch time: 12157.52531589 Element set: 474 Inclination: 097.8744 deg RA of node: 169.3094 deg Eccentricity: 0.0094342 Arg of perigee: 146.4237 deg Mean anomaly: 214.2981 deg Mean motion: 14.54155239 rev/day Decay rate: 6.34e-06 rev/day^2 Epoch rev: 27257 Checksum: 313
Satellite: CAPE1 Catalog number: 31130 Epoch time: 12157.68917654 Element set: 0488 Inclination: 097.8828 deg RA of node: 165.8530 deg Eccentricity: 0.0102238 Arg of perigee: 158.8709 deg Mean anomaly: 201.6729 deg Mean motion: 14.52932342 rev/day Decay rate: 6.67e-06 rev/day^2 Epoch rev: 27210 Checksum: 317
Satellite: COMPASS Catalog number: 32787 Epoch time: 12157.67411647 Element set: 0322 Inclination: 097.8003 deg RA of node: 219.2629 deg Eccentricity: 0.0016285 Arg of perigee: 097.5606 deg Mean anomaly: 262.7482 deg Mean motion: 14.83972279 rev/day Decay rate: 2.617e-05 rev/day^2 Epoch rev: 22210 Checksum: 313
Satellite: AAUSAT2 Catalog number: 32788 Epoch time: 12158.38779729 Element set: 312 Inclination: 097.8018 deg RA of node: 220.3363 deg Eccentricity: 0.0015909 Arg of perigee: 095.4485 deg Mean anomaly: 264.8568 deg Mean motion: 14.84295249 rev/day Decay rate: 2.700e-05 rev/day^2 Epoch rev: 22223 Checksum: 331
Satellite: DO-64 Catalog number: 32789 Epoch time: 12157.90737632 Element set: 327 Inclination: 097.8140 deg RA of node: 221.8449 deg Eccentricity: 0.0015930 Arg of perigee: 094.4852 deg Mean anomaly: 265.8171 deg Mean motion: 14.85757920 rev/day Decay rate: 4.135e-05 rev/day^2 Epoch rev: 22220 Checksum: 321
Satellite: CO-66 Catalog number: 32791 Epoch time: 12157.65919571 Element set: 0313 Inclination: 097.8020 deg RA of node: 218.9999 deg Eccentricity: 0.0016830 Arg of perigee: 097.9353 deg Mean anomaly: 262.3821 deg Mean motion: 14.83392492 rev/day Decay rate: 1.765e-05 rev/day^2 Epoch rev: 22203 Checksum: 333
Satellite: RS-30 Catalog number: 32953 Epoch time: 12158.82641211 Element set: 843 Inclination: 082.5006 deg RA of node: 301.5800 deg Eccentricity: 0.0018186 Arg of perigee: 333.8295 deg Mean anomaly: 026.1869 deg Mean motion: 12.43024289 rev/day Decay rate: 1.0e-07 rev/day^2 Epoch rev: 18327 Checksum: 277
Satellite: TACSAT-3 Catalog number: 35001 Epoch time: 12121.72616188 Element set: 0001 Inclination: 040.4259 deg RA of node: 351.8840 deg Eccentricity: 0.0007146 Arg of perigee: 275.2650 deg Mean anomaly: 085.0693 deg Mean motion: 16.45157000 rev/day Decay rate: 1.5204951e-01 rev/day^2 Epoch rev: 16699 Checksum: 280
Satellite: PHARMSAT Catalog number: 35002 Epoch time: 12157.96524924 Element set: 0924 Inclination: 040.4568 deg RA of node: 139.1741 deg Eccentricity: 0.0006832 Arg of perigee: 160.1824 deg Mean anomaly: 200.0419 deg Mean motion: 15.82626312 rev/day Decay rate: 1.37550e-03 rev/day^2 Epoch rev: 17254 Checksum: 274
Satellite: METEOR-M Catalog number: 35865 Epoch time: 12158.66410313 Element set: 475 Inclination: 098.6560 deg RA of node: 213.1873 deg Eccentricity: 0.0003405 Arg of perigee: 082.9171 deg Mean anomaly: 277.2389 deg Mean motion: 14.21863307 rev/day Decay rate: -1.4e-07 rev/day^2 Epoch rev: 14110 Checksum: 280
Satellite: RS-38 Catalog number: 35869 Epoch time: 12158.68681318 Element set: 483 Inclination: 098.6505 deg RA of node: 213.2057 deg Eccentricity: 0.0005555 Arg of perigee: 082.2748 deg Mean anomaly: 277.9061 deg Mean motion: 14.22072727 rev/day Decay rate: 3.2e-07 rev/day^2 Epoch rev: 14112 Checksum: 310
Satellite: JUGNU Catalog number: 37839 Epoch time: 12157.93497370 Element set: 0161 Inclination: 019.9606 deg RA of node: 066.3935 deg Eccentricity: 0.0020321 Arg of perigee: 099.7662 deg Mean anomaly: 260.4994 deg Mean motion: 14.12058464 rev/day Decay rate: 6.20e-06 rev/day^2 Epoch rev: 03365 Checksum: 309
